Boonton, New Jersey, United States (07005)
Lat: 40.90N, Lon: 74.41W
Wx Zone: NJZ008
Local Info
Past Weather Observations for Sunday, September 21, 2014

NOTE: This archive is for the closest National Weather Service station to Boonton. Information may differ from the station used for current weather conditions.

Click here for Long-term Archive

Time Weather Temperature Dewpoint Humidity Pressure Winds Precip Visibility
23:53
Overcast
68°F / 20°C 61°F / 16°C 78% 29.65 in
(1004 mb)
NW 5.8 mph
(NW 9 kph)
0.00 in
(0.00 mm)
10SM
23:46
Overcast
Light Rain
68°F / 20°C 63°F / 17°C 83% 29.65 in
(1004 mb)
NW 6.9 mph
(NW 11 kph)
0.00 in
(0.00 mm)
10SM
23:16
Overcast
Light Rain
68°F / 20°C 64°F / 18°C 88% 29.65 in
(1004 mb)
Calm 0.00 in
(0.00 mm)
10SM
22:53
Overcast
Light Rain
68°F / 20°C 64°F / 18°C 88% 29.65 in
(1004 mb)
Calm 0.00 in
(0.00 mm)
10SM
22:44
Overcast
Light Rain
68°F / 20°C 64°F / 18°C 88% 29.65 in
(1004 mb)
NW 3.5 mph
(NW 6 kph)
0.00 in
(0.00 mm)
8SM
21:53
Clear
68°F / 20°C 64°F / 18°C 88% 29.62 in
(1003 mb)
SW 3.5 mph
(SW 6 kph)
- 9SM
20:53
Partly Cloudy
68°F / 20°C 64°F / 18°C 88% 29.65 in
(1004 mb)
SW 3.5 mph
(SW 6 kph)
- 10SM
19:53
Clear
68°F / 20°C 64°F / 18°C 88% 29.62 in
(1003 mb)
Calm - 10SM
18:53
Clear
70°F / 21°C 64°F / 18°C 83% 29.62 in
(1003 mb)
Calm - 10SM
17:53
Clear
73°F / 23°C 64°F / 18°C 74% 29.62 in
(1003 mb)
Calm - 10SM
16:53
Clear
75°F / 24°C 64°F / 18°C 69% 29.65 in
(1004 mb)
SSW 3.5 mph
(SSW 6 kph)
- 10SM
15:53
Clear
75°F / 24°C 64°F / 18°C 69% 29.65 in
(1004 mb)
S 5.8 mph
(S 9 kph)
- 10SM
14:53
Partly Cloudy
75°F / 24°C 64°F / 18°C 69% 29.68 in
(1005 mb)
Variable 6.9 mph
(Variable 11 kph)
- 10SM
13:53
Clear
75°F / 24°C 64°F / 18°C 69% 29.71 in
(1006 mb)
Variable 3.5 mph
(Variable 6 kph)
- 10SM
13:05
Overcast
72°F / 22°C 64°F / 18°C 78% 29.74 in
(1007 mb)
Calm - 10SM
12:53
Overcast
72°F / 22°C 64°F / 18°C 78% 29.77 in
(1008 mb)
Calm - 10SM
11:53
Overcast
70°F / 21°C 64°F / 18°C 83% 29.8 in
(1009 mb)
Variable 3.5 mph
(Variable 6 kph)
- 10SM
10:53
Overcast
70°F / 21°C 64°F / 18°C 83% 29.83 in
(1010 mb)
Calm - 10SM
10:42
Overcast
70°F / 21°C 64°F / 18°C 83% 29.83 in
(1010 mb)
Calm - 10SM
09:53
Overcast
68°F / 20°C 64°F / 18°C 88% 29.86 in
(1011 mb)
Calm - 10SM
08:53
Overcast
66°F / 19°C 63°F / 17°C 88% 29.89 in
(1012 mb)
E 3.5 mph
(E 6 kph)
- 7SM
07:53
Overcast
Fog And Mist
66°F / 19°C 63°F / 17°C 88% 29.92 in
(1013 mb)
Calm - 4SM
07:08
Overcast
Fog And Mist
64°F / 18°C 63°F / 17°C 94% 29.92 in
(1013 mb)
Calm - 3SM
06:53
Overcast
Fog And Mist
64°F / 18°C 63°F / 17°C 94% 29.92 in
(1013 mb)
Calm - 2SM
06:44
Overcast
Fog And Mist
64°F / 18°C 63°F / 17°C 94% 29.92 in
(1013 mb)
Calm - 2SM
06:29
Overcast
Fog And Mist
64°F / 18°C 63°F / 17°C 94% 29.92 in
(1013 mb)
Calm - 1 3/4SM
06:18
Overcast
Fog And Mist
64°F / 18°C 61°F / 16°C 88% 29.92 in
(1013 mb)
Calm - 2SM
05:53
Overcast
Fog And Mist
64°F / 18°C 61°F / 16°C 88% 29.92 in
(1013 mb)
Calm - 5SM
04:53
Overcast
Fog And Mist
64°F / 18°C 63°F / 17°C 94% 29.92 in
(1013 mb)
Calm - 5SM
03:53
Overcast
Fog And Mist
64°F / 18°C 63°F / 17°C 94% 29.95 in
(1014 mb)
Calm - 5SM
02:53
Mostly Cloudy
Fog And Mist
64°F / 18°C 61°F / 16°C 88% 29.98 in
(1015 mb)
Calm - 5SM
02:49
Overcast
Fog And Mist
64°F / 18°C 61°F / 16°C 88% 29.98 in
(1015 mb)
Calm - 5SM
02:42
Overcast
Fog And Mist
64°F / 18°C 61°F / 16°C 88% 29.98 in
(1015 mb)
Calm - 5SM
01:53
Overcast
Fog And Mist
64°F / 18°C 61°F / 16°C 88% 30.01 in
(1016 mb)
Calm 0.01 in
(0.25 mm)
5SM
00:53
Overcast
Light Rain
64°F / 18°C 61°F / 16°C 88% 30.04 in
(1017 mb)
Calm 0.00 in
(0.00 mm)
7SM
Time Weather Temperature Dewpoint Humidity Pressure Winds Precip Visibility


Weather for websites

WeatherForYou.com, LLC is not responsible for any damages or problems caused by this service. Current weather conditions are obtained from the closest station including government and personal stations which may have varying degrees of accuracy. Weather forecasts are derived from the NOAA NDFD. Like all things, this site belongs to Jesus Christ... He just trusts me to maintain it. If you have any questions or comments email webmaster@weatherforyou.com

Copyright © 2014, WeatherForYou.com LLC. All rights reserved.